[Iaude] MPEC S131: 2023 SF3 [a=1.40,e=0.27,i=30.5,H=24.6]
    mpec at marsden.cfa.harvard.edu 
    mpec at marsden.cfa.harvard.edu
       
    Wed Sep 20 21:44:22 EDT 2023
    
    
  
M.P.E.C. 2023-S131                           Issued 2023 September 21, 01:42 UT
     The Minor Planet Electronic Circulars contain information on unusual
         minor planets, routine data on comets and natural satellites,
         and occasional editorial announcements.  They are published
    on behalf of Division F of the International Astronomical Union by the
          Minor Planet Center, Smithsonian Astrophysical Observatory,
                          Cambridge, MA 02138, U.S.A.
			  
             Prepared using the Tamkin Foundation Computer Network
                              MPC at CFA.HARVARD.EDU
            URL https://www.minorplanetcenter.net/    ISSN 1523-6714
                                    2023 SF3                                    
Observations:
     K23S03F  C2023 09 18.54264702 24 20.555-23 37 23.67         17.70GVES131F51
     K23S03F  C2023 09 18.55293502 23 58.408-23 27 58.83         17.78GVES131F51
     K23S03F  C2023 09 18.56296802 23 36.772-23 18 45.04               VES131F51
     K23S03F  C2023 09 18.57376602 23 13.456-23 08 45.02               VES131F51
     K23S03F  C2023 09 20.41481701 07 10.889+17 00 37.83               VES131F52
     K23S03F* C2023 09 20.42392501 06 42.415+17 14 08.95         17.34cVES131T05
     K23S03F  C2023 09 20.42752101 06 31.145+17 19 28.50         16.78GVES131F52
     K23S03F  C2023 09 20.42763901 06 30.785+17 19 39.11         17.29cVES131T05
     K23S03F  C2023 09 20.43217401 06 16.562+17 26 21.66         17.20cVES131T05
     K23S03F  C2023 09 20.43767301 05 59.290+17 34 30.29         17.54cVES131T05
     K23S03F  C2023 09 20.50360201 02 30.562+19 11 18.96         17.56cVES131T05
     K23S03F  C2023 09 20.50405401 02 29.234+19 11 56.11         17.70cVES131T05
     K23S03F  C2023 09 20.50450601 02 27.821+19 12 34.81         17.42cVES131T05
     K23S03F  C2023 09 20.50495801 02 26.362+19 13 14.34         17.55cVES131T05
     K23S03F  C2023 09 20.50541101 02 24.900+19 13 54.91         17.79cVES131T05
     K23S03F KC2023 09 20.76308 00 49 42.81 +25 13 58.7          17.3 GXES131G02
     K23S03F KC2023 09 20.76589 00 49 33.99 +25 17 51.5          17.3 GXES131G02
     K23S03F KC2023 09 20.76868 00 49 25.31 +25 21 41.6          17.1 GXES131G02
     K23S03F KC2023 09 20.77981000 48 50.947+25 36 39.53         17.1 GVES131A17
     K23S03F KC2023 09 20.78379600 48 38.484+25 42 07.24         17.2 GVES131A17
     K23S03F 1C2023 09 20.78579 00 48 31.48 +25 44 50.8          17.7 VXES131033
     K23S03F 1C2023 09 20.78608 00 48 30.58 +25 45 14.5          17.7 VXES131033
     K23S03F 1C2023 09 20.78636 00 48 29.67 +25 45 38.4          17.7 VXES131033
     K23S03F 1C2023 09 20.78671 00 48 28.57 +25 46 07.1          17.8 VXES131033
     K23S03F KC2023 09 20.78736100 48 27.300+25 47 00.49         17.1 GVES131A17
     K23S03F 1C2023 09 20.82332 00 46 28.48 +26 37 19.8          18.0 GVES131C40
     K23S03F 1C2023 09 20.82653 00 46 18.04 +26 41 40.6          17.8 GVES131C40
     K23S03F KB2023 09 20.82702300 46 21.781+26 40 54.12         17.0 GXES131B72
     K23S03F KB2023 09 20.82956100 46 13.725+26 44 20.13         17.0 GXES131B72
     K23S03F 1C2023 09 20.82976 00 46 07.59 +26 46 01.8          17.7 GVES131C40
     K23S03F KB2023 09 20.83212600 46 05.561+26 47 47.98         17.2 GXES131B72
     K23S03F KC2023 09 20.83255100 46 03.14 +26 48 33.7          16.8 GVES131G34
     K23S03F KC2023 09 20.83351800 46 00.04 +26 49 52.1          17.0 GVES131G34
     K23S03F KC2023 09 20.83448400 45 56.96 +26 51 09.3          17.2 GVES131G34
     K23S03F KC2023 09 20.83545100 45 53.87 +26 52 28.2          17.1 GVES131G34
     K23S03F KC2023 09 20.83641700 45 50.82 +26 53 46.5          16.9 GVES131G34
     K23S03F KC2023 09 20.83841000 45 44.43 +26 56 26.9          17.3 GVES131G34
     K23S03F 1C2023 09 20.84095 00 45 31.20 +27 01 05.0          17.7 GVES131C40
     K23S03F 1C2023 09 20.84415 00 45 20.77 +27 05 22.9          18.0 GVES131C40
     K23S03F 1C2023 09 20.84737 00 45 10.26 +27 09 41.6          18.0 GVES131C40
     K23S03F KB2023 09 20.86853900 44 12.57 +27 37 00.3          17.1 GVES131I93
     K23S03F KB2023 09 20.87019100 44 07.26 +27 39 12.7          17.1 GVES131I93
     K23S03F KB2023 09 20.87181300 44 02.04 +27 41 22.3          17.1 GVES131I93
     K23S03F KB2023 09 20.87343300 43 56.82 +27 43 32.0          17.2 GVES131I93
     K23S03F KB2023 09 20.87507500 43 51.52 +27 45 43.2          16.9 GVES131I93
     K23S03F KC2023 09 20.88143700 43 28.58 +27 54 45.7          16.8 RVES131M50
     K23S03F KC2023 09 20.88325900 43 22.59 +27 57 11.3          16.7 RVES131M50
     K23S03F KB2023 09 20.89381 00 42 46.231+28 10 06.35         17.4 GXES131L38
     K23S03F KB2023 09 20.89620400 42 43.66 +28 13 48.7          17.5 GXES131958
     K23S03F KB2023 09 20.89650 00 42 37.490+28 13 39.07         17.3 GXES131L38
     K23S03F KB2023 09 20.89917 00 42 28.829+28 17 10.14         17.2 GXES131L38
     K23S03F KB2023 09 20.90051300 42 29.63 +28 19 30.1          18.1 GXES131958
     K23S03F KB2023 09 20.90479700 42 15.64 +28 25 08.5          17.5 GXES131958
     K23S03F KC2023 09 20.92382 00 41 07.694+28 49 38.60         17.7 GXES131G19
     K23S03F KC2023 09 20.92706 00 40 57.106+28 53 53.02         17.4 GXES131G19
     K23S03F KB2023 09 20.93912000 40 18.499+29 09 34.92         17.4 GXES131K74
     K23S03F KB2023 09 20.94097300 40 12.413+29 11 59.24         17.2 GXES131K74
     K23S03F KB2023 09 20.94280600 40 06.362+29 14 21.23               XES131K74
Observer details:
033 Karl Schwarzschild Observatory, Tautenburg.  Observers S. Melnikov, C.
    Hogner, F. Ludwig, M. Hartmann, B. Stecklum.  Measurer B. Stecklum.
    1.34-m f/3 Schmidt + CCD.
958 Observatoire de Dax.  Observer P. Dupouy.  0.32-m f/4.1 0.32-m Schmidt-
    Cassegrain + CMO.
A17 Guidestar Observatory, Weinheim.  Observers M. Emmerich, S. Melchert.
    0.36-m f/6.0 Schmidt-Cassegrain + CCD.
B72 Soerth.  Observer B. Koch.  0.36-m f/7.6 reflector + CMO.
C40 Kuban State University Astrophysical Observatory.  Observers A. Ivanov, A.
    Barcov, V. Ivanov, V. Lysenko, N. Yakovenko, N. Ivanova, N. Gorbunov, G.
    Kurbatov, P. Shchukin, V. Roshchupko.  Measurer A. Ivanov.  0.51-m f/8
    reflector + CCD.
F51 Pan-STARRS 1, Haleakala.  Observers J. Bulger, K. Chambers, T. Lowe, P.
    Minguez, A. Schultz, I. Smith.  Measurers S. Chastel, J. Fairlamb, M.
    Huber, Y. Ramanjooloo, R. Wainscoat, R. Weryk.  1.8-m Ritchey-Chretien +
    CCD.
F52 Pan-STARRS 2, Haleakala.  Observers J. Bulger, K. Chambers, T. Dukes, T.
    Lowe, P. Minguez, A. Schultz, I. Smith.  Measurers S. Chastel, J.
    Fairlamb, M. Huber, Y. Ramanjooloo, R. Wainscoat, R. Weryk.  1.8-m
    Ritchey-Chretien + CCD.
G02 KYSUCE Observatory, Kysucke Nove Mesto.  Observer M. Urbanik.  0.40-m
    f/6.8 Corrected Dall-Kirkham + CCD.
G19 Immanuel Kant Observatory,Limbach.  Observers I. Kuettner, B. Haeusler.
    Measurers I. Kuettner, D. Parrott.  0.28-m f/6.7 reflector + CCD.
G34 Oberfrauendorf.  Observer T. Felber.  0.35-m f/6.3 Schmidt-Cassegrain +
    CCD.
I93 St Pardon de Conques.  Observer F. Losse.  0.40-m f/3.7 reflector + CMO.
K74 Muensterschwarzach Observatory, Schwarzach.  Observer C. Gerhard.  0.30-m
    f/3.75 reflector + CMO.
L38 Gartensternwarte Schafsweide, Sehlde.  Observer A. Opitz.  0.35-m f/5.2
    Newton + CMO.
M50 Virtual Telescope Project, Manciano.  Observer G. Masi.  0.36-m  f/6.9
    Schmidt-Cassegrain + CCD.
T05 ATLAS-HKO, Haleakala.  Observers L. Denneau, R. Siverd, J. Tonry, H.
    Weiland.  Measurers L. Denneau, N. Erasmus, A. Fitzsimmons, A. Lawrence,
    J. Robinson, R. Siverd, J. Tonry, H. Weiland.  0.5-m Reflector + CCD.
Orbital elements:
2023 SF3                                                 Earth MOID = 0.0184 AU
Epoch 2023 Sept. 13.0 TT = JDT 2460200.5                Veres                   
M 353.15708              (2000.0)            P               Q                  
n   0.59646288     Peri.    4.71296     +0.99894406     -0.03773835             
a   1.3976994      Node   357.04152     +0.00107439     +0.58936040             
e   0.2687755      Incl.   30.50940     +0.04593041     +0.80698831             
P   1.65           H   24.60          G   0.15           U   8                  
Residuals in seconds of arc
230918 F51  0.0   0.4-    230920 033  0.2+  0.5-    230920 I93  0.1-  0.1+
230918 F51  0.2-  0.1-    230920 033  0.4+  0.6-    230920 I93  0.0   0.2+
230918 F51  0.2-  0.3-    230920 033  0.1-  0.3+    230920 I93  0.0   0.1-
230918 F51  0.0   0.1-    230920 033  0.1-  0.2+    230920 I93  0.0   0.0
230920 F52  0.1-  0.2-    230920 A17  0.1-  0.5-    230920 I93  0.1-  0.0
230920 T05  0.0   0.2+    230920 C40  0.0   0.4-    230920 M50  0.8+  0.2+
230920 F52  0.1-  0.1-    230920 C40  0.4-  0.2+    230920 M50  0.2+  0.7+
230920 T05  0.1+  0.0     230920 B72  0.2-  0.2-    230920 L38  0.4-  0.6+
230920 T05  0.1+  0.3-    230920 B72  0.0   0.1-    230920 958  0.6+  0.2-
230920 T05  0.1+  0.2+    230920 C40  0.0   0.1-    230920 L38  0.1-  0.1-
230920 T05  1.3-  2.3+    230920 B72  0.0   0.2-    230920 L38  0.2-  0.6+
230920 T05  0.3+  0.0     230920 G34  0.6-  0.9+    230920 958  0.2+  0.2-
230920 T05  0.6+  0.8-    230920 G34  0.7-  1.0+    230920 958  0.4-  0.6-
230920 T05  0.3+  0.8-    230920 G34  0.6-  0.0     230920 G19  0.5-  0.3+
230920 T05  0.0   0.2+    230920 G34  0.5-  0.7+    230920 G19  0.0   1.5+
230920 G02  0.1+  0.1+    230920 G34  0.0   0.8+    230920 K74  0.5+  0.6-
230920 G02  0.4-  0.3+    230920 G34  0.1-  0.1+    230920 K74  0.6+  0.2-
230920 G02  0.4+  0.4-    230920 C40  0.1-  0.4-    230920 K74  0.4+  0.4-
230920 A17  0.2+  0.1+    230920 C40  0.1-  0.2-
230920 A17  0.2+  0.5-    230920 C40  0.3-  0.4-
Ephemeris:
2023 SF3                 a,e,i = 1.40, 0.27, 31                  q = 1.0220
Date    TT    R. A. (2000) Decl.     Delta      r    Elong.  Phase     V
2023 08 22    05 05 20.9 -61 16 27   0.2750  1.0628    93.1    71.9    24.4
...
2023 09 06    04 45 16.4 -58 32 01   0.1386  1.0348    97.2    75.1    23.0
...
2023 09 14    03 56 19.6 -51 26 29   0.06350 1.0262   106.7    69.9    21.1
...
2023 09 20    01 26 46.1 +06 38 42   0.02029 1.0228   153.8    25.7    17.4
2023 09 21    00 36 59.8 +30 28 34   0.02174 1.0225   146.6    32.7    17.7
2023 09 22    23 42 08.6 +47 04 15   0.02690 1.0222   132.2    46.7    18.6
...
2023 09 28    20 06 01.2 +65 22 03   0.07871 1.0224   102.7    73.0    21.7
...
2023 10 06    18 58 09.1 +65 03 49   0.1539  1.0269    95.8    75.7    23.2
...
2023 10 21    18 33 29.9 +64 18 20   0.2885  1.0478    92.3    71.7    24.5
M. P. C. Staff               (C) Copyright 2023 MPC           M.P.E.C. 2023-S131
    
    
More information about the Iaude
mailing list